Temp_Advection
nan nan nan nan nan nan nan nan nan nan nan nan nan nan nan nan nan nan nan nan nan nan nan nan nan nan nan nan nan nan nan nan nan nan nan nan nan nan nan nan nan nan nan nan
nan -1 -2 -1 -0 0 -0 -1 -2 -1 -0 1 -4 -1 1 -0 -1 -2 -1 -1 -1 -1 -1 -0 0 0 -0 0 0 0 0 0 0 -0 -0 -0 -0 -0 -0 -0 -0 -0 -0 nan
nan -1 -1 -0 0 -0 0 -0 -1 -1 -1 0 2 -4 -0 -1 1 -3 6 -1 -1 -1 -1 -0 0 0 -0 -0 -0 0 0 0 0 -0 -0 -0 -0 -0 -0 -0 -0 0 -0 nan
nan -1 -0 0 -0 -0 -0 -1 -0 -0 -0 0 1 2 -5 -2 2 0 -10 -0 -1 -0 -1 -1 0 0 0 -0 0 -0 0 0 0 -0 0 -0 -0 -0 -0 -0 -0 -0 -0 nan
nan -1 -0 -0 -1 -0 -1 -0 0 0 -0 -1 0 -0 0 -5 -1 -2 -7 2 1 -0 -0 -0 -0 0 -0 -0 0 0 0 -0 0 -0 -0 -0 -0 -0 -0 -0 -0 0 -0 nan
nan -1 -0 -0 -0 -0 0 1 -0 0 1 0 -1 -0 -0 -1 -3 -2 -1 -2 -0 -1 -0 -0 -0 0 0 -0 -0 0 0 -0 -0 -0 -0 -0 0 -0 -0 -0 0 -0 -0 nan
nan -1 -1 -0 -0 0 1 1 1 0 0 -1 -1 0 -1 -0 -5 -5 -1 -0 -8 -1 -1 -1 -1 -0 0 -0 -1 -0 0 -0 -1 -0 -0 -0 -0 -0 -0 0 -0 -0 -0 nan
nan -0 -1 0 0 -0 1 0 0 -0 -1 -1 -1 -0 -2 -2 1 -8 -4 -4 -2 2 0 -1 -1 -0 0 -0 -0 -0 0 -0 -0 -1 -1 -0 -1 -0 0 0 -0 -0 -0 nan
nan -1 -0 0 0 0 0 -1 -0 -1 -0 -0 -1 -1 -1 -0 0 -1 -2 -2 -1 -2 0 1 -1 -0 -0 0 -0 -0 -0 -0 -0 -1 -0 -1 -1 -0 -0 -0 0 0 -0 nan
nan -2 -2 0 0 0 -0 -0 1 1 1 -2 -2 -1 -1 -0 0 0 -1 -0 -2 1 -1 1 3 -1 -0 0 -0 0 -0 1 0 1 -0 0 -1 -1 -0 0 -0 0 0 nan
nan -1 -2 -0 0 0 0 0 -0 -0 -0 -0 -1 -2 -2 -0 -0 1 -2 -3 -2 -1 -2 0 -1 1 -0 -0 -0 -0 0 0 1 0 1 0 -1 -0 0 -0 0 0 0 nan
nan -0 -0 -2 -1 -0 0 -1 -0 1 -0 -1 -1 -2 -2 0 -0 -0 -1 0 -2 -0 -0 2 -0 -0 -2 -1 -0 -0 0 -0 0 1 1 0 0 -0 1 -0 0 0 -0 nan
nan 0 -0 -2 -2 -0 0 -0 -0 -0 0 1 -1 -2 -3 -1 -2 1 1 1 1 -6 1 -3 -1 -8 -3 -1 -1 -0 -0 -0 -0 0 0 0 0 0 -1 0 0 0 -0 nan
nan -0 -1 -1 -0 -1 -1 -1 -0 -0 0 -0 -1 -2 -0 -2 -3 -4 -3 -3 -1 1 -5 -7 -8 -2 3 -1 -1 -0 -1 -1 -1 -1 -0 -0 -0 -1 0 0 0 -0 -1 nan
nan 0 -1 -1 -1 -1 -1 -1 -2 -0 -0 -1 -1 -1 2 -2 -0 -1 -2 -2 -4 -2 -1 -0 3 -3 -2 -1 -1 -0 -0 -1 -1 -1 -0 -1 -0 -0 0 -0 -0 -0 -0 nan
nan 0 -0 -1 -2 -1 -1 -1 -1 -1 -1 -0 0 -1 -1 1 0 -0 -1 -1 -2 -6 -5 -0 -0 -2 -3 -0 -1 -0 -0 -0 -0 -0 -0 -0 -0 -0 -0 -0 0 -0 -0 nan
nan 0 0 -1 -1 -0 -1 -1 -1 -1 -0 0 -1 -2 -1 -1 -0 -0 -1 -1 -1 -1 -10 -3 0 0 1 1 2 -0 0 0 -0 -0 -0 0 -0 -0 -0 -0 -0 -0 -0 nan
nan 1 0 -1 -0 -1 -3 -2 -1 0 -1 -0 -0 -1 -1 -0 -1 -1 -1 -0 0 1 -3 -2 -0 1 -0 1 -0 -1 -0 0 -0 0 0 -0 -0 -0 -0 -0 -1 -0 -1 nan
nan 1 1 -0 -1 -2 -2 -1 0 -1 -1 0 -0 -1 -2 -1 -1 -1 -2 -1 -0 1 -1 -2 -1 -1 -1 -0 -0 0 -0 -0 0 -0 0 0 -0 0 -0 -0 -1 -0 -0 nan
nan 1 1 0 0 -2 -3 0 -1 -1 -1 -1 -0 -1 -1 -2 -1 -1 -3 -3 -0 0 -0 -1 -1 -1 -2 -1 0 0 0 0 0 -0 0 1 0 0 0 0 1 0 -1 nan
nan -0 1 -0 -1 -2 -2 1 -0 0 -1 -2 -2 -2 -2 -2 -1 -2 -6 -6 -0 1 -0 -1 -1 -2 -2 -0 0 -1 -1 0 -0 1 1 0 1 1 1 1 1 1 1 nan
nan -0 -0 0 0 -0 -2 -2 0 -1 -0 -1 -1 -2 -2 -2 -3 -3 -6 -3 1 0 -0 -1 -1 -1 -1 -0 -1 -2 -1 -1 1 1 1 1 1 1 1 1 1 1 0 nan
nan -0 -0 -0 -0 -1 -1 -1 -1 -2 -2 -1 -1 -1 -1 -2 -5 -8 -1 1 1 0 -1 -1 -1 -1 -0 -1 -1 -1 -2 -0 1 0 1 1 1 2 1 1 0 -0 0 nan
nan -0 -0 -0 -0 -0 0 -1 -1 -1 -1 -1 -0 -1 -2 -3 -5 -0 1 0 0 -0 -1 -1 -1 -1 -2 -1 0 0 -1 1 0 1 1 1 2 1 1 1 1 0 -0 nan
nan 0 0 -0 0 -1 -0 0 -0 -1 -0 -1 -2 -2 -1 -2 -0 0 0 0 0 0 0 0 0 -0 -1 -1 0 1 0 0 -0 1 2 2 1 1 1 1 0 0 -0 nan
nan nan nan nan nan nan nan nan nan nan nan nan nan nan nan nan nan nan nan nan nan nan nan nan nan nan nan nan nan nan nan nan nan nan nan nan nan nan nan nan nan nan nan nan
Wind_Speed
22 13 16 20 21 20 21 19 19 17 17 20 14 12 5 15 13 20 32 33 36 40 34 33 32 30 29 30 28 25 25 26 24 20 20 16 15 13 14 10 8 7 5 6
13 20 20 19 19 20 21 20 19 14 17 19 20 17 18 10 20 31 32 34 36 38 41 36 34 34 32 32 32 31 28 27 26 20 20 17 14 12 12 14 12 6 6 7
21 14 22 21 19 19 19 19 17 19 14 12 13 19 17 16 22 24 34 34 35 39 42 41 38 36 34 35 34 34 32 27 27 23 23 19 18 16 11 15 14 9 8 5
21 22 19 20 22 19 19 16 18 19 17 12 16 15 26 21 21 5 36 34 35 37 39 41 40 39 38 38 36 34 36 29 30 26 24 25 20 16 17 18 15 10 10 8
18 22 21 21 18 21 18 17 14 17 18 18 18 15 17 29 18 17 36 33 35 38 42 43 44 42 40 39 40 36 35 35 31 33 26 26 23 20 15 15 18 15 12 12
16 22 17 20 18 17 18 14 19 16 15 16 21 19 16 15 20 14 17 32 23 39 41 45 45 43 40 38 41 38 37 39 37 35 32 30 29 22 17 16 19 15 10 12
15 19 17 14 17 21 17 15 12 13 13 17 20 18 16 20 26 34 19 23 60 42 41 44 45 45 43 43 43 43 41 39 41 38 37 34 31 27 23 19 18 14 16 13
12 14 20 15 17 14 19 18 14 18 14 18 20 20 18 24 19 46 52 46 21 42 43 43 48 48 50 49 47 46 46 42 41 43 41 38 35 32 29 19 23 17 17 20
11 17 5 23 17 18 21 20 22 23 20 17 17 18 24 21 21 14 21 30 38 19 25 42 43 46 48 47 49 48 48 45 43 43 44 44 40 36 34 30 23 22 21 15
10 15 16 9 5 9 14 14 14 15 22 23 18 20 14 20 18 14 14 19 25 27 27 26 40 42 44 48 46 46 44 47 45 43 46 45 46 43 36 35 27 25 21 19
13 12 19 9 9 14 13 16 14 14 13 19 16 16 17 13 22 19 20 27 34 50 42 13 17 38 43 44 44 47 45 44 46 44 44 47 46 45 42 35 33 30 28 23
9 9 13 19 13 14 16 20 18 13 17 15 14 17 22 17 14 17 19 19 38 37 38 41 37 34 46 46 46 46 47 45 47 47 43 46 46 44 44 44 38 36 32 31
9 7 9 16 15 18 13 17 18 19 18 22 15 14 22 15 15 10 15 18 11 43 48 46 32 59 51 49 46 45 46 48 43 43 44 42 44 45 45 44 46 38 38 35
7 10 14 13 10 14 11 16 18 19 15 15 20 23 20 13 19 24 25 23 12 14 49 45 45 34 44 47 46 44 44 44 44 41 42 44 46 46 47 44 43 45 40 39
6 14 17 20 22 18 18 18 21 24 23 21 18 23 22 18 17 21 28 30 31 19 19 22 24 32 59 48 46 45 41 44 42 43 43 46 46 47 45 45 43 42 47 43
12 15 17 21 21 21 23 20 20 20 17 22 20 25 24 17 13 23 24 28 35 39 30 10 12 27 41 46 48 48 46 43 44 44 47 43 45 45 45 45 43 43 42 44
14 11 12 20 19 20 23 20 20 19 19 15 17 23 21 18 15 23 28 29 33 41 49 15 11 11 18 30 47 49 50 46 45 44 43 44 43 46 46 44 45 43 44 43
15 13 7 12 15 13 16 19 23 23 23 20 21 23 24 22 26 31 32 30 35 39 44 17 12 13 6 24 23 37 42 44 44 46 43 44 44 46 47 46 45 46 45 45
18 13 7 9 12 17 22 16 18 13 19 19 12 16 29 28 28 35 34 28 33 36 39 18 11 13 15 15 6 27 34 41 44 44 49 46 49 48 48 48 47 48 46 46
15 16 12 12 13 17 22 21 9 10 14 15 19 19 25 31 15 17 33 31 31 24 18 15 13 13 17 22 20 18 28 35 45 49 48 48 48 49 50 49 47 47 47 47
8 8 13 12 15 13 18 20 4 10 15 17 19 22 25 18 28 47 47 43 20 13 30 18 17 15 18 23 26 27 24 34 42 45 44 43 45 50 47 46 45 45 46 44
5 6 3 8 10 14 20 15 9 11 17 16 23 28 30 37 45 54 49 30 16 11 16 15 16 16 17 25 28 34 37 28 38 39 43 41 46 44 44 44 44 43 43 42
2 4 4 4 5 17 22 16 23 22 24 34 27 34 33 37 46 55 22 12 10 11 15 16 13 11 14 18 22 32 41 42 26 40 41 43 43 45 41 43 42 42 42 41
6 8 3 6 4 19 27 31 26 27 30 34 33 33 34 33 47 11 7 4 6 8 11 11 10 14 21 23 14 27 30 40 38 37 43 42 42 42 43 40 42 43 42 42
2 6 5 7 16 18 12 17 24 25 24 30 33 28 26 30 9 10 9 3 1 5 2 4 5 9 14 16 17 19 27 30 34 36 43 43 41 41 41 42 38 40 39 40
4 3 2 4 17 15 18 22 18 35 22 23 17 19 20 18 9 14 13 13 12 10 7 4 5 4 4 10 12 14 20 23 33 38 38 40 39 38 39 41 37 36 36 36
Wind_Direction
208 212 216 224 228 243 268 284 235 249 233 190 190 136 99 304 275 230 167 179 178 175 186 178 182 181 174 182 184 180 181 190 186 185 173 176 180 204 180 192 198 158 201 200
203 228 229 226 236 232 255 265 278 247 242 215 139 150 154 190 252 240 171 180 183 178 177 186 185 184 182 180 186 187 185 195 195 192 170 176 181 182 190 193 184 222 180 207
229 222 219 236 233 241 239 250 261 271 260 238 230 152 165 222 237 286 176 180 187 183 178 183 186 185 184 181 188 189 190 197 201 184 176 187 193 191 190 193 223 209 190 181
230 241 237 216 235 235 243 238 257 275 278 231 221 254 178 188 220 320 293 178 187 187 185 179 184 187 187 185 192 195 194 199 203 184 191 188 189 189 197 207 208 203 192 200
236 235 235 246 221 236 246 254 242 246 269 274 258 222 257 166 180 166 231 184 185 191 187 183 186 190 188 187 190 200 201 197 207 191 194 190 189 198 198 206 209 204 198 195
261 267 224 245 243 253 240 246 261 261 239 248 248 256 246 206 174 159 233 245 226 191 191 187 188 188 190 189 188 198 204 206 206 199 189 199 191 192 198 200 190 192 205 210
244 259 267 266 251 217 236 216 236 235 234 242 234 240 244 268 163 168 167 229 251 187 190 186 184 187 190 190 191 194 206 209 211 208 196 196 204 188 198 205 197 201 211 215
256 220 223 211 237 242 211 221 227 226 232 239 233 248 237 250 240 175 176 188 233 183 186 186 186 189 190 193 193 193 203 211 212 211 207 202 205 197 197 198 210 203 212 220
287 267 358 211 201 226 246 219 240 261 254 249 251 227 230 243 242 182 151 170 180 263 230 185 188 192 193 194 195 196 200 212 215 211 215 208 210 209 200 202 196 214 207 222
301 308 286 175 260 231 250 282 240 227 252 265 262 259 242 207 221 197 155 145 178 215 260 187 184 194 198 197 198 196 201 210 216 217 215 215 214 218 213 207 206 207 205 212
299 281 275 277 191 240 236 257 257 277 262 247 257 259 271 227 204 209 183 168 164 198 209 267 264 199 201 199 198 199 200 206 211 215 217 217 218 219 218 215 213 213 203 209
290 289 266 263 260 192 256 272 251 243 245 269 264 250 263 10 200 207 228 228 193 177 183 190 237 253 194 198 198 200 201 204 211 215 215 217 220 221 221 217 218 214 214 208
318 261 261 266 266 257 237 250 253 267 241 251 247 246 261 292 349 208 206 223 248 166 174 179 189 230 192 192 195 198 201 204 208 206 210 210 212 219 224 221 217 220 219 220
328 279 279 268 268 346 296 261 253 271 248 249 248 260 273 355 18 1 2 353 307 229 180 189 188 198 184 188 191 195 201 203 205 210 209 209 214 216 222 224 223 217 224 223
263 268 272 281 292 296 287 286 287 233 253 254 253 246 259 54 357 322 320 340 337 307 242 254 236 177 207 185 188 194 199 202 204 206 210 212 213 215 217 218 225 223 224 228
251 253 270 276 282 281 278 260 262 278 258 252 261 271 278 335 355 308 306 327 330 315 310 311 331 204 186 183 189 192 196 202 202 206 211 214 213 216 214 218 215 225 225 226
258 266 273 266 262 269 259 254 259 261 263 272 263 267 286 305 312 299 306 316 319 322 318 275 299 297 236 202 190 191 198 198 203 207 211 212 212 215 218 216 217 217 226 226
247 254 244 266 283 260 255 268 272 248 258 257 263 271 283 287 291 289 291 299 301 311 314 343 258 281 123 206 215 197 197 195 203 205 211 210 210 217 219 218 217 221 220 228
237 230 246 246 250 269 276 267 260 317 261 259 311 308 297 293 300 292 288 282 284 290 298 309 308 296 281 293 249 199 195 203 204 212 211 214 213 216 220 222 221 221 220 227
266 255 221 232 244 249 252 255 17 342 272 277 285 289 290 298 286 280 288 299 286 283 288 303 302 300 291 262 268 253 212 206 210 212 217 213 216 214 221 226 225 222 223 228
312 280 246 245 245 253 262 272 119 234 268 320 327 312 305 299 281 280 290 288 281 270 282 291 289 284 276 269 252 254 247 213 220 223 213 214 218 217 217 221 223 223 222 224
297 315 285 238 245 261 5 315 249 322 307 305 305 302 294 287 288 284 292 265 269 272 275 289 287 282 276 274 264 240 238 234 224 217 215 215 214 218 210 218 217 219 221 222
295 334 313 305 307 314 308 307 300 301 293 290 296 289 289 286 284 284 244 236 256 268 266 265 280 288 284 271 253 246 231 226 233 216 215 213 216 213 210 213 215 217 221 220
346 22 293 325 329 321 311 310 304 283 274 288 285 276 279 282 289 209 162 155 244 267 257 258 254 251 262 269 252 232 251 235 232 221 214 211 210 210 210 214 219 219 219 221
251 291 264 253 280 306 296 312 307 300 287 271 272 259 263 277 219 134 119 92 104 70 115 180 189 243 257 254 237 225 225 223 228 223 211 205 206 208 208 208 214 217 218 223
244 277 305 286 303 292 292 313 314 306 286 263 263 267 266 278 163 126 115 83 71 57 73 103 149 146 187 232 222 221 218 204 208 204 197 198 203 203 204 205 208 210 215 213
Height
1477 1478 1478 1472 1469 1463 1456 1452 1448 1441 1433 1441 1451 1476 1479 1479 1481 1483 1485 1493 1498 1505 1514 1519 1525 1532 1535 1541 1547 1553 1558 1561 1566 1569 1574 1578 1581 1583 1585 1587 1588 1591 1593 1594
1471 1474 1467 1463 1459 1461 1459 1458 1448 1432 1427 1432 1452 1474 1471 1470 1477 1479 1475 1486 1492 1500 1507 1514 1521 1527 1532 1537 1543 1551 1556 1559 1564 1568 1572 1577 1580 1583 1585 1587 1589 1590 1593 1594
1468 1457 1460 1460 1458 1459 1456 1459 1452 1445 1430 1426 1435 1480 1478 1475 1471 1480 1472 1480 1489 1493 1500 1507 1515 1522 1529 1533 1538 1546 1553 1556 1561 1567 1571 1575 1578 1582 1583 1586 1587 1589 1592 1593
1458 1456 1450 1456 1457 1455 1462 1447 1450 1448 1445 1452 1434 1462 1468 1465 1470 1463 1489 1474 1486 1490 1496 1501 1509 1516 1523 1528 1534 1541 1549 1554 1559 1564 1568 1571 1575 1578 1582 1584 1586 1587 1590 1592
1453 1451 1451 1449 1450 1451 1455 1446 1447 1452 1452 1447 1438 1450 1439 1445 1471 1470 1479 1469 1480 1487 1490 1493 1501 1509 1517 1523 1528 1535 1543 1550 1554 1560 1565 1569 1573 1576 1580 1583 1584 1586 1588 1591
1449 1442 1442 1445 1443 1446 1447 1453 1452 1448 1452 1466 1448 1445 1440 1435 1451 1466 1473 1478 1478 1480 1485 1487 1494 1505 1512 1519 1524 1530 1536 1544 1549 1555 1560 1565 1569 1574 1578 1580 1582 1584 1586 1589
1455 1448 1443 1443 1445 1443 1446 1459 1477 1479 1471 1464 1440 1446 1434 1415 1420 1443 1459 1474 1472 1468 1477 1481 1489 1497 1504 1511 1516 1522 1528 1535 1543 1549 1556 1560 1565 1570 1574 1578 1580 1582 1584 1586
1455 1460 1444 1442 1449 1448 1448 1454 1466 1483 1469 1456 1434 1444 1428 1414 1415 1429 1433 1443 1462 1458 1465 1474 1481 1487 1493 1500 1508 1515 1519 1526 1534 1543 1550 1556 1560 1565 1570 1574 1577 1580 1583 1585
1459 1450 1431 1434 1441 1447 1449 1451 1445 1451 1438 1445 1427 1417 1412 1408 1411 1419 1437 1439 1435 1456 1467 1467 1478 1485 1489 1495 1500 1506 1513 1519 1527 1534 1542 1550 1555 1560 1565 1570 1574 1577 1580 1583
1468 1470 1442 1438 1443 1442 1446 1442 1455 1451 1474 1468 1437 1424 1416 1409 1408 1412 1425 1429 1435 1449 1465 1462 1471 1484 1489 1491 1495 1504 1509 1513 1520 1528 1534 1541 1547 1553 1560 1565 1568 1573 1576 1580
1477 1473 1455 1441 1449 1454 1456 1456 1454 1449 1448 1456 1459 1435 1396 1395 1396 1400 1413 1419 1425 1438 1451 1461 1467 1480 1486 1491 1493 1497 1504 1509 1515 1522 1528 1534 1539 1546 1553 1558 1563 1567 1572 1575
1476 1472 1469 1458 1442 1448 1453 1452 1447 1459 1464 1445 1441 1435 1392 1397 1391 1398 1403 1409 1418 1426 1436 1454 1469 1471 1474 1482 1486 1489 1496 1503 1507 1514 1521 1527 1533 1539 1545 1551 1556 1561 1565 1570
1483 1479 1483 1472 1457 1447 1450 1447 1446 1442 1441 1447 1450 1439 1396 1402 1402 1398 1404 1411 1416 1426 1439 1453 1453 1464 1463 1467 1475 1481 1488 1495 1503 1510 1516 1522 1527 1531 1536 1542 1549 1554 1559 1563
1494 1489 1483 1475 1461 1467 1459 1453 1452 1449 1449 1447 1436 1433 1411 1419 1420 1420 1417 1419 1421 1425 1436 1435 1436 1448 1445 1459 1463 1472 1480 1489 1498 1503 1509 1514 1518 1523 1528 1535 1542 1548 1552 1556
1497 1496 1491 1482 1477 1475 1470 1465 1457 1451 1447 1448 1435 1431 1417 1436 1431 1431 1430 1429 1427 1425 1425 1427 1430 1417 1424 1448 1452 1462 1474 1482 1490 1496 1500 1504 1510 1517 1523 1529 1533 1540 1545 1549
1493 1495 1492 1489 1481 1476 1471 1464 1460 1453 1444 1441 1438 1435 1422 1434 1441 1434 1436 1438 1435 1431 1427 1425 1425 1425 1433 1434 1438 1449 1462 1472 1481 1487 1490 1497 1505 1511 1517 1522 1528 1532 1537 1542
1494 1493 1498 1493 1485 1480 1476 1464 1461 1456 1451 1452 1454 1438 1436 1442 1447 1445 1441 1444 1443 1441 1432 1423 1423 1427 1427 1434 1434 1442 1449 1461 1471 1480 1487 1492 1498 1504 1509 1516 1521 1526 1529 1535
1493 1496 1504 1502 1493 1499 1473 1464 1459 1457 1453 1453 1452 1448 1442 1448 1452 1451 1448 1449 1447 1443 1435 1426 1424 1425 1433 1436 1434 1445 1451 1455 1462 1471 1479 1485 1491 1496 1503 1509 1513 1518 1523 1527
1482 1488 1504 1503 1498 1486 1472 1464 1462 1460 1452 1451 1457 1456 1449 1449 1452 1445 1447 1451 1448 1445 1441 1433 1427 1423 1425 1429 1430 1440 1445 1449 1457 1463 1469 1474 1481 1487 1494 1499 1504 1510 1517 1521
1480 1477 1487 1492 1495 1487 1468 1461 1467 1468 1464 1459 1460 1459 1457 1452 1452 1440 1444 1445 1445 1443 1442 1439 1432 1428 1425 1427 1432 1437 1441 1441 1447 1455 1459 1467 1474 1480 1483 1489 1496 1503 1509 1512
1492 1486 1489 1490 1485 1472 1466 1463 1469 1478 1470 1464 1466 1466 1466 1464 1456 1440 1446 1452 1446 1448 1448 1441 1436 1430 1428 1429 1430 1431 1436 1440 1441 1447 1458 1464 1467 1472 1478 1486 1492 1497 1502 1508
1504 1493 1487 1482 1481 1480 1476 1471 1473 1471 1468 1471 1470 1469 1467 1460 1451 1440 1445 1446 1444 1444 1442 1438 1436 1429 1429 1431 1431 1431 1430 1436 1441 1443 1450 1456 1462 1466 1473 1477 1483 1489 1495 1500
1505 1509 1505 1502 1484 1478 1481 1480 1476 1476 1471 1465 1467 1466 1466 1459 1446 1439 1437 1439 1439 1437 1437 1435 1429 1426 1428 1426 1425 1424 1426 1430 1435 1438 1441 1448 1454 1460 1466 1471 1476 1482 1487 1493
1509 1510 1507 1503 1483 1482 1479 1475 1472 1468 1463 1460 1460 1460 1459 1450 1442 1433 1429 1431 1434 1432 1431 1426 1423 1422 1422 1422 1419 1420 1422 1424 1428 1431 1434 1440 1446 1451 1458 1465 1469 1473 1478 1483
1514 1510 1506 1498 1490 1486 1478 1477 1471 1464 1459 1458 1455 1452 1449 1444 1433 1427 1425 1425 1427 1425 1423 1420 1417 1417 1415 1416 1416 1415 1414 1416 1420 1424 1427 1432 1439 1444 1450 1458 1461 1465 1469 1473
1511 1506 1504 1495 1491 1488 1480 1474 1468 1458 1449 1449 1446 1444 1440 1437 1430 1426 1427 1428 1427 1425 1421 1419 1414 1414 1413 1413 1412 1410 1410 1408 1412 1415 1420 1425 1431 1437 1443 1450 1453 1458 1462 1466